Weather History for Upington, South Africa

Change the Weather History Date:

Friday, February 15, 2013

  Actual Average Record
Temperature  
Mean Temperature 80 °F -  
Max Temperature 97 °F 91 °F 102 °F (1999)
Min Temperature 62 °F 64 °F 60 °F (1997)
Cooling Degree Days 14    
Growing Degree Days 30 (Base 50)    
Moisture  
Dew Point 38 °F    
Average Humidity 27    
Maximum Humidity 59    
Minimum Humidity 4    
Precipitation  
Precipitation 0.00 in 0.05 in - ()
Sea Level Pressure  
Sea Level Pressure 29.95 in    
Wind  
Wind Speed 8 mph ()    
Max Wind Speed 15 mph    
Max Gust Speed -    
Visibility 6.2 miles    
Events      
Averages and records for this station are not official NWS values.
T = Trace of Precipitation, MM = Missing Value Source: Averaged Metar Reports

Daily Weather History Graph

Daily Weather History Graph

Search for Another Location

Airport:

Trip Planner

Search our weather history database for the weather conditions in past years. The results will help you decide how hot, cold, wet, or windy it might be!

Date:

Astronomy

Feb. 15, 2013 Rise Set
Actual Time 6:17 AM SAST 7:20 PM SAST
Civil Twilight 5:52 AM SAST 7:44 PM SAST
Nautical Twilight 5:23 AM SAST 8:13 PM SAST
Astronomical Twilight 4:53 AM SAST 8:43 PM SAST
Moon 11:08 AM SAST (2/15) 10:27 PM SAST (2/15)
Length of Visible Light 13h 52m
Length of Day
13h 03m
Waxing Crescent, 27% of the Moon is Illuminated
Feb 15
Waxing Crescent
Feb 17
First Quarter
Feb 25
Full
Mar 4
Last Quarter
Mar 11
New

Hourly Weather History & Observations

Time (SAST) Temp. Dew Point Humidity Pressure Visibility Wind Dir Wind Speed Gust Speed Precip Events Conditions
12:00 AM 77.0 °F 42.8 °F 29% 29.92 in - South 15.0 mph - N/A   Unknown
1:00 AM 73.4 °F 44.6 °F 36% 29.92 in - SSW 11.5 mph - N/A   Clear
2:00 AM 72 °F 42 °F 23%  in 25 mi SSW 9.2 mph - -  
2:00 AM 71.6 °F 41.0 °F 33% 29.92 in - SSW 9.2 mph - N/A   Clear
3:00 AM 68.0 °F 46.4 °F 46% 29.95 in - South 10.4 mph - N/A   Clear
4:00 AM 66.2 °F 46.4 °F 49% 29.95 in - South 5.8 mph - N/A   Clear
5:00 AM 66 °F 48 °F 42%  in 25 mi SSW 6.9 mph - -  
5:00 AM 66.2 °F 48.2 °F 52% 29.95 in - SSW 6.9 mph - N/A   Clear
6:00 AM 62.6 °F 48.2 °F 59% 29.98 in - SSW 5.8 mph - N/A   Clear
7:00 AM 62.6 °F 46.4 °F 55% 29.98 in - SW 4.6 mph - N/A   Clear
8:00 AM 68 °F 47 °F 36%  in 25 mi SSW 6.9 mph - -   Scattered Clouds
8:00 AM 66.2 °F 46.4 °F 49% 30.01 in - SSW 5.8 mph - N/A   Clear
9:00 AM 69.8 °F 44.6 °F 40% 30.01 in - South 6.9 mph - N/A   Clear
9:40 AM 73.4 °F 44.6 °F 36% 30.01 in - SSW 8.1 mph - N/A   Clear
10:00 AM 73.4 °F 44.6 °F 36% 30.01 in - SSW 8.1 mph - N/A   Clear
10:27 AM 77.0 °F 44.6 °F 32% 30.01 in - SSW 6.9 mph - N/A   Clear
11:00 AM 78 °F 44 °F 19%  in 25 mi SW 8.1 mph - -   Scattered Clouds
11:00 AM 77.0 °F 42.8 °F 29% 30.01 in - SW 8.1 mph - N/A   Clear
11:06 AM 80.6 °F 44.6 °F 28% 29.98 in - SW 6.9 mph - N/A   Clear
12:00 PM 82.4 °F 42.8 °F 25% 29.98 in - SSW 8.1 mph - N/A   Clear
1:00 PM 86.0 °F 41.0 °F 20% 29.98 in - SSW 8.1 mph - N/A   Clear
1:35 PM 89.6 °F 37.4 °F 16% 29.95 in - SSW 9.2 mph - N/A   Clear
2:00 PM 89.6 °F 35.6 °F 15% 29.95 in 6.2 mi SSW 9.2 mph - N/A   Partly Cloudy
3:00 PM 93.2 °F 28.4 °F 10% 29.92 in 6.2 mi SSW 11.5 mph - N/A   Partly Cloudy
4:00 PM 93.2 °F 26.6 °F 9% 29.89 in 6.2 mi SSW 10.4 mph - N/A   Partly Cloudy
5:00 PM 96 °F 23 °F 4%  in 25 mi SW 10.4 mph - -   Scattered Clouds
5:00 PM 95.0 °F 23.0 °F 8% 29.89 in 6.2 mi SW 10.4 mph - N/A   Partly Cloudy
6:00 PM 93.2 °F 24.8 °F 9% 29.86 in 6.2 mi SSW 10.4 mph - N/A   Partly Cloudy
7:00 PM 91.4 °F 26.6 °F 10% 29.89 in - SSW 9.2 mph - N/A   Clear
8:00 PM 84 °F 27 °F 6%  in 25 mi SSW 8.1 mph - -  
8:00 PM 84.2 °F 28.4 °F 13% 29.92 in - SSW 6.9 mph - N/A   Clear
9:00 PM 80.6 °F 32.0 °F 17% 29.92 in - SSW 4.6 mph - N/A   Unknown
10:00 PM 77.0 °F 28.4 °F 17% 29.95 in - SSE 4.6 mph - N/A   Unknown
11:00 PM 74 °F 22 °F 7%  in - SSE 8.1 mph - -  
11:00 PM 73.4 °F 23.0 °F 15% 29.95 in - SSE 6.9 mph - N/A   Unknown